TimePDT,TemperatureF,Dew PointF,Humidity,Sea Level PressureIn,VisibilityMPH,Wind Direction,Wind SpeedMPH,Gust SpeedMPH,PrecipitationIn,Events,Conditions,WindDirDegrees,DateUTC
12:53 AM,51.1,46.9,86,29.76,10.0,WSW,4.6,-,N/A,,Overcast,240,2013-05-29 07:53:00
1:53 AM,50.0,46.0,86,29.75,10.0,WSW,4.6,-,N/A,,Overcast,240,2013-05-29 08:53:00
2:53 AM,50.0,46.0,86,29.73,10.0,SW,6.9,-,N/A,,Overcast,230,2013-05-29 09:53:00
3:53 AM,50.0,46.9,89,29.71,7.0,WSW,4.6,-,0.04,Rain,Light Rain,240,2013-05-29 10:53:00
4:14 AM,50.0,46.9,89,29.70,9.0,WSW,5.8,-,0.02,Rain,Light Rain,250,2013-05-29 11:14:00
4:53 AM,48.9,46.9,93,29.71,4.0,West,5.8,-,0.13,Rain,Rain,260,2013-05-29 11:53:00
5:15 AM,48.9,46.9,93,29.70,5.0,West,5.8,-,0.06,Rain,Rain,280,2013-05-29 12:15:00
5:53 AM,48.9,46.9,93,29.71,10.0,West,5.8,-,0.09,Rain,Light Rain,270,2013-05-29 12:53:00
6:53 AM,48.9,46.9,93,29.71,9.0,WNW,4.6,-,0.02,Rain,Light Rain,300,2013-05-29 13:53:00
7:02 AM,48.9,46.9,93,29.71,7.0,WNW,4.6,-,0.01,Rain,Light Rain,300,2013-05-29 14:02:00
7:37 AM,48.9,46.9,93,29.71,10.0,WNW,5.8,-,0.02,Rain,Light Rain,290,2013-05-29 14:37:00
7:46 AM,48.9,46.9,93,29.72,10.0,West,5.8,-,0.02,,Overcast,280,2013-05-29 14:46:00
7:53 AM,48.9,46.9,93,29.72,10.0,West,5.8,-,0.02,Rain,Light Rain,280,2013-05-29 14:53:00
8:53 AM,50.0,48.0,93,29.73,3.0,West,6.9,-,0.04,Rain,Light Rain,270,2013-05-29 15:53:00
9:03 AM,50.0,46.9,89,29.73,3.0,West,10.4,-,0.00,Rain,Light Rain,280,2013-05-29 16:03:00
9:19 AM,50.0,46.9,89,29.73,2.5,West,12.7,-,0.01,Rain,Light Rain,270,2013-05-29 16:19:00
9:27 AM,50.0,46.9,89,29.73,3.0,West,9.2,-,0.01,Rain,Light Rain,280,2013-05-29 16:27:00
9:53 AM,51.1,48.0,89,29.75,10.0,West,9.2,-,0.01,,Overcast,280,2013-05-29 16:53:00
10:53 AM,53.1,48.0,83,29.76,10.0,WNW,8.1,-,N/A,,Overcast,290,2013-05-29 17:53:00
11:53 AM,54.0,48.0,80,29.78,10.0,WNW,8.1,-,0.00,,Overcast,300,2013-05-29 18:53:00
12:13 PM,53.1,46.9,80,29.78,10.0,NW,9.2,-,N/A,,Overcast,310,2013-05-29 19:13:00
12:37 PM,55.0,46.9,74,29.78,10.0,NW,10.4,-,N/A,,Overcast,310,2013-05-29 19:37:00
12:53 PM,54.0,48.0,80,29.79,10.0,NW,11.5,20.7,N/A,,Mostly Cloudy,310,2013-05-29 19:53:00
1:03 PM,54.0,48.9,83,29.79,10.0,NW,11.5,-,N/A,,Overcast,320,2013-05-29 20:03:00
1:18 PM,53.1,46.9,80,29.80,10.0,NW,11.5,-,N/A,,Overcast,310,2013-05-29 20:18:00
1:53 PM,53.1,48.0,83,29.81,10.0,NW,6.9,-,0.00,,Overcast,320,2013-05-29 20:53:00
2:53 PM,53.1,46.9,80,29.83,10.0,NW,12.7,19.6,N/A,,Overcast,310,2013-05-29 21:53:00
3:01 PM,52.0,46.9,83,29.83,10.0,WNW,16.1,-,N/A,,Overcast,300,2013-05-29 22:01:00
3:24 PM,52.0,46.9,83,29.84,10.0,WNW,13.8,19.6,N/A,,Overcast,300,2013-05-29 22:24:00
3:53 PM,52.0,46.9,83,29.85,10.0,NW,17.3,25.3,N/A,,Overcast,310,2013-05-29 22:53:00
4:09 PM,52.0,46.9,83,29.85,10.0,WNW,15.0,24.2,N/A,,Overcast,300,2013-05-29 23:09:00
4:53 PM,51.1,46.9,86,29.86,10.0,WNW,17.3,26.5,N/A,,Overcast,300,2013-05-29 23:53:00
5:53 PM,53.1,46.9,80,29.87,10.0,NW,10.4,-,N/A,,Overcast,320,2013-05-30 00:53:00
6:26 PM,51.1,46.9,86,29.87,10.0,WNW,13.8,21.9,N/A,,Mostly Cloudy,290,2013-05-30 01:26:00
6:53 PM,51.1,46.9,86,29.88,10.0,WNW,12.7,19.6,N/A,,Scattered Clouds,300,2013-05-30 01:53:00
7:53 PM,51.1,46.9,86,29.90,10.0,WNW,6.9,-,N/A,,Scattered Clouds,290,2013-05-30 02:53:00
8:53 PM,50.0,46.0,86,29.92,10.0,WNW,6.9,-,N/A,,Overcast,300,2013-05-30 03:53:00
9:13 PM,50.0,46.9,89,29.92,10.0,West,3.5,-,N/A,,Overcast,260,2013-05-30 04:13:00
9:53 PM,50.0,46.9,89,29.94,10.0,Calm,Calm,-,N/A,,Overcast,0,2013-05-30 04:53:00
10:09 PM,50.0,48.0,93,29.94,10.0,Calm,Calm,-,N/A,,Overcast,0,2013-05-30 05:09:00
10:53 PM,50.0,46.9,89,29.95,10.0,West,3.5,-,N/A,,Mostly Cloudy,280,2013-05-30 05:53:00
11:00 PM,48.9,46.9,93,29.95,10.0,Calm,Calm,-,N/A,,Mostly Cloudy,0,2013-05-30 06:00:00
11:14 PM,48.9,46.9,93,29.95,10.0,WNW,3.5,-,N/A,,Mostly Cloudy,290,2013-05-30 06:14:00
11:34 PM,48.9,46.9,93,29.96,10.0,Calm,Calm,-,N/A,,Overcast,0,2013-05-30 06:34:00
11:53 PM,50.0,46.9,89,29.97,10.0,WSW,3.5,-,N/A,,Overcast,250,2013-05-30 06:53:00